sat.trackr.live / text

‹ back to catalog

STARLINK-36729

NORAD 67905 · 2026-036B

PAYLOAD ACTIVE UNKNOWN

§ Identity

Operator
Country
US
Launch date
2026-02-22
Launch site
AFETR
Launch vehicle
Mass (kg)
RCS (m²)

Purposes: comms

External: N2YO · Heavens-Above · Gunter

§ Orbital elements

Epoch: 2026-05-24T18:32:01.302720Z

Period
94.27 min
Inclination
42.9989°
Eccentricity
0.0001109
Mean motion
15.27581545 rev/d
Perigee alt
482.3 km
Apogee alt
483.8 km
Semi-major
6,861.2 km
B*
2.7986e-4
RAAN
175.9736°
Arg perigee
273.9120°
Mean anomaly
86.1605°
Rev number
1,535

§ Raw data

STARLINK-367291 67905U 26036B   26144.77223730  .00007447  00000+0  27986-3 0  99982 67905  42.9989 175.9736 0001109 273.9120  86.1605 15.27581545 15356

JSON: /api/v1/satellites/67905 · /tle

For live sub-satellite position, see the globe view (requires WebGL).

§ Visibility from observer

Set your observer location to see the next 7 days of passes ≥ 10°. The values pass through the URL so the page stays shareable.

No JS? Fill the form by hand. The geolocation button needs JavaScript.